www.pogodaiklimat.ru

Погода и климат >> Архив погоды >> Великобритания >> Норхолт


ПОГОДА в Норхолте

  • Прогноз погоды в Норхолте
  • Монитор погоды в Норхолте

АРХИВ ПОГОДЫ в Норхолте

Время (UTC), дата Ветер
(напр.,м/с)
 
Видим.   Явления Облачность Т
(С)
Тd
(С)
f
(%)
Тe
(С)
Тes
(С)
Комфортность P
(гПа)
Po
(гПа)
Тmin
(С)
Tmax
(С)
R
(мм)
R24
(мм)
S
(см)
01 12.08 ЮЗ 2 40 км н/о +13.7 +11.9 89 +13 +13 1013.4 1009.4
02 12.08 З 2 35 км н/о +13.1 +11.6 91 +12 +12 1013.2 1009.2
03 12.08 З 1 29 км н/о +12.2 +11.1 93 +13 +13 1013.3 1009.3
04 12.08 З 1 30 км н/о +12.3 +11.7 96 +13 +13 1013.4 1009.4
05 12.08 СЗ 2 27 км н/о +12.8 +11.8 94 +12 +12 1013.4 1009.4
06 12.08 З 1 30 км 9/8 840 м
[Sc Ac trans]
+13.4 +12.2 92 +14 +14 1013.6 1009.6 +12.0
07 12.08 С 2 30 км в посл. час ливневой дождь 9/6 840 м
[Sc diur, vesp Ac trans]
+13.6 +12.4 92 +13 +14 1014.0 1010.1
08 12.08 СВ 2 45 км 9/6 600 м
[Sc diur, vesp Ac trans]
+14.7 +9.5 71 +14 +16 1014.3 1010.4
09 12.08 СВ 1 45 км {ливн. осадки} 9/5 540 м
[Cu Sc Ac trans]
+15.6 +10.0 69 +16 +19 1014.5 1010.5
10 12.08 СВ 2 45 км 6/5 750 м
[Sc diur, vesp Ac trans]
+16.8 +9.6 62 +17 +22 1014.4 1010.4
11 12.08 СЗ 4 20 км ливневой дождь 9/9 540 м
[Sc diur, vesp Ac trans]
+15.4 +12.2 81 +14 +15 1014.4 1010.5
12 12.08 СЗ 2 30 км в посл. час ливневой дождь туман 9/9 540 м
[Cu Sc]
+16.6 +12.4 76 +17 +19 1014.2 1010.3 4
13 12.08 СЗ 3 40 км в посл. час ливневой дождь 9/9 720 м
[Sc diur, vesp]
+17.3 +12.8 75 +17 +19 1014.2 1010.3
14 12.08 З 2 40 км 9/4 960 м
[Cu med, cong Ac trans Ci fib]
+17.8 +10.3 61 +18 +22 1014.3 1010.4
15 12.08 С 3 30 км в посл. час ливневой дождь 9/4 840 м
[Cb cap Ac trans Ci sp]
+16.4 +10.2 67 +16 +19 1014.4 1010.5
16 12.08 СЗ 1 40 км 9/4 1080 м
[Cu Sc Ac trans Ci fib]
+17.6 +8.3 54 +19 +21 1014.4 1010.5
17 12.08 СЗ 4 40 км 9/6 1500 м
[Sc Ac trans]
+17.7 +7.2 50 +17 +18 1014.8 1010.9
18 12.08 СЗ 2 40 км {ливн. осадки} 8/1 1080 м
[Cu med, cong Ac trans Ci fib]
+17.5 +11.7 69 +18 +18 1015.2 1011.3 +18.1 4
19 12.08 СЗ 3 40 км 5/0
[Ac trans]
+17.0 +6.8 51 +17 +17 1015.7 1011.7
20 12.08 СЗ 3 45 км н/о +15.3 +6.3 55 +15 +15 1016.4 1012.4
21 12.08 З 2 40 км н/о +14.4 +7.4 63 +14 +14 1017.0 1013.0
22 12.08 З 2 35 км н/о +13.3 +7.8 69 +13 +13 1017.2 1013.2
23 12.08 З 4 45 км н/о +13.1 +8.4 73 +11 +11 1017.5 1013.5
00 13.08 З 3 45 км н/о +12.1 +8.5 79 +11 +11 1017.6 1013.6
01 13.08 З 2 40 км н/о +11.8 +8.9 82 +11 +11 1017.5 1013.5
02 13.08 З 3 35 км н/о +11.5 +8.9 84 +10 +10 1017.4 1013.4
03 13.08 ЮЗ 2 35 км н/о +10.7 +8.7 87 +9 +9 1017.1 1013.1
04 13.08 З 2 40 км н/о +10.3 +8.7 90 +9 +9 1017.0 1012.9
05 13.08 З 3 35 км н/о +10.0 +8.7 92 +8 +8 1017.1 1013.1
06 13.08 З 4 40 км 4/1 2000 м
[Sc Ci sp]
+11.2 +9.5 89 +9 +9 1017.3 1013.3 +10.0
07 13.08 СЗ 4 40 км 4/1 450 м
[Cu Sc Ci sp]
+12.0 +9.7 86 +10 +11 1017.7 1013.7
08 13.08 СЗ 4 40 км 3/1 540 м
[Cu hum Ci sp]
+14.2 +10.3 77 +13 +16 1018.2 1014.2
09 13.08 СЗ 4 50 км 3/1 900 м
[Cu hum Ci sp]
+16.0 +8.8 62 +15 +20 1017.9 1013.9
10 13.08 З 5 50 км 3/3 1200 м
[Cu hum]
+17.6 +7.9 53 +17 +21 1017.9 1013.9
11 13.08 З 4 50 км 4/4 1350 м
[Cu hum]
+18.0 +6.7 48 +18 +23 1017.8 1013.9
12 13.08 З 5 50 км 4/4 1500 м
[Sc diur, vesp]
+20.1 +6.4 41 +21 +25 комфорт 1017.5 1013.6
13 13.08 З 6 50 км 4/4 1500 м
[Sc diur, vesp]
+20.6 +5.7 38 +21 +25 комфорт 1017.2 1013.3
14 13.08 З 6 50 км 3/3 1500 м
[Cu med, cong Ac cuf Ci fib]
+20.9 +7.1 41 +22 +25 комфорт 1017.1 1013.2
15 13.08 З 5 50 км 3/3 1500 м
[Cu med, cong Ac cuf Ci fib]
+21.6 +5.7 35 +22 +25 комфорт 1016.8 1012.9
16 13.08 З 7 50 км 3/1 1500 м
[Cu med, cong Ac cuf Ci fib]
+21.6 +5.2 34 +22 +23 комфорт 1016.6 1012.7
17 13.08 СЗ 4 50 км 3/1 1500 м
[Cu med, cong Ac cuf Ci fib]
+20.8 +5.7 37 +22 +23 комфорт 1016.4 1012.5
18 13.08 З 5 50 км 1/1 1500 м
[Cu med, cong Ac cuf Ci fib]
+20.1 +5.7 39 +21 +21 комфорт 1016.6 1012.7 +22.1
19 13.08 СЗ 3 50 км 3/1 1500 м
[Cu med, cong Ac cuf Ci fib]
+19.1 +6.8 45 +20 +20 1016.9 1013.0
20 13.08 ЮЗ 3 50 км 6/1 1500 м
[Cu med, cong Ac cuf Ci fib]
+17.0 +9.2 60 +17 +17 1017.3 1013.4
21 13.08 ЮЗ 4 35 км н/о +16.2 +10.5 69 +16 +16 1017.4 1013.4
22 13.08 З 3 35 км н/о +15.1 +10.6 74 +14 +14 1017.5 1013.5
23 13.08 ЮЗ 3 35 км н/о +14.3 +10.7 79 +14 +14 1017.4 1013.4
00 14.08 ЮЗ 2 30 км н/о +13.6 +10.8 83 +13 +13 1017.3 1013.3
01 14.08 ЮЗ 1 30 км н/о +13.5 +11.1 85 +14 +14 1017.1 1013.1
02 14.08 Ю 1 30 км н/о +14.0 +11.6 85 +14 +14 1016.7 1012.7
03 14.08 ЮЗ 3 27 км н/о +13.7 +11.9 89 +12 +12 1016.3 1012.4
04 14.08 Ю 2 28 км н/о +14.0 +12.4 90 +14 +14 1015.8 1011.8
05 14.08 Ю 2 26 км н/о +13.9 +12.4 91 +14 +14 1015.6 1011.7
06 14.08 ЮЗ 3 30 км 8/3 420 м
[Sc Ac As]
+15.1 +13.4 90 +15 +15 1015.4 1011.4 +13.4
07 14.08 Ю 4 25 км слаб. дождь 9/3 360 м
[Frnb Ac As]
+15.8 +13.3 85 +15 +16 1014.9 1010.9
08 14.08 Ю 4 12 км слаб. дождь 10/4 360 м
[Sc As op]
+15.4 +13.8 90 +14 +15 1014.7 1010.8
09 14.08 Ю 4 5000 м сильн. дождь 10/10 420 м
[Sc]
+14.7 +13.7 94 +13 +13 1014.2 1010.3
10 14.08 ЮЗ 5 5000 м дождь {морось} 10/10 300 м
[Sc]
+14.9 +13.7 93 +13 +13 1014.1 1010.1
11 14.08 Ю 7 6000 м дождь {морось} 10/10 270 м
[Sc]
+14.2 +13.3 94 +12 +12 1013.4 1009.4
12 14.08 Ю 5 5000 м дождь {морось} 10/10 270 м
[Sc]
+13.9 +13.1 95 +12 +12 1012.6 1008.6 8
13 14.08 Ю 4 20 км в посл. час дождь 10/10 300 м
[Sc]
+15.3 +14.0 92 +14 +14 1011.6 1007.6
14 14.08 Ю 6 10 км слаб. морось {дождь} 10/10 240 м
[Frnb]
+16.0 +15.0 94 +15 +15 1010.8 1006.9
15 14.08 ЮЗ 7 6000 м дождь {морось} 10/10 210 м
[Sc]
+16.4 +15.4 94 +15 +15 1010.1 1006.2
16 14.08 ЮЗ 5 6000 м слаб. морось {дождь} 10/10 210 м
[Sc]
+16.7 +15.9 95 +16 +16 1009.2 1005.3
17 14.08 ЮЗ 5 6000 м слаб. морось {дождь} 10/10 180 м
[Sc]
+16.7 +16.2 97 +16 +16 1008.5 1004.6
18 14.08 ЮЗ 5 20 км в посл. час морось {дождь} 10/10 210 м
[Sc]
+17.2 +16.5 96 +17 +17 1007.9 1004.0 +17.2 10
19 14.08 ЮЗ 4 12 км дождь {морось} 10/10 240 м
[St]
+17.2 +16.3 94 +17 +17 1007.8 1003.9
20 14.08 ЮЗ 4 3900 м н/о +17.1 +16.3 95 +17 +17 1007.6 1003.7
21 14.08 ЮЗ 5 4700 м н/о +17.1 +16.4 96 +16 +16 1007.7 1003.8
22 14.08 ЮЗ 4 16 км н/о +17.1 +16.3 95 +17 +17 1007.6 1003.7
23 14.08 ЮЗ 3 25 км н/о +17.0 +16.0 94 +17 +17 1007.7 1003.8
00 15.08 З 5 30 км н/о +16.9 +15.8 93 +16 +16 1007.9 1004.0 0.4
01 15.08 З 5 28 км н/о +16.7 +15.6 93 +16 +16 1007.8 1003.9
02 15.08 З 6 20 км н/о +16.6 +15.4 93 +16 +16 1007.8 1003.9
03 15.08 З 5 19 км н/о +15.6 +14.3 92 +14 +14 1008.1 1004.1
04 15.08 З 3 20 км н/о +14.7 +13.5 93 +14 +14 1008.3 1004.4
05 15.08 З 4 18 км н/о +14.3 +13.4 94 +13 +13 1008.9 1004.9
06 15.08 З 6 20 км 5/5 1440 м
[Sc Ci fib]
+15.6 +14.2 91 +14 +14 1009.1 1005.2 +14.3 0.6
07 15.08 З 6 25 км 9/9 400 м
[Cu Sc]
+16.3 +13.8 85 +15 +15 1009.6 1005.7
08 15.08 З 7 30 км 8/8 540 м
[Cu Sc]
+17.3 +13.5 78 +16 +17 1010.2 1006.3
09 15.08 З 8 40 км 6/6 870 м
[Cu hum Ci fib]
+18.6 +12.9 69 +18 +19 1010.6 1006.7
10 15.08 З 9
{13}
45 км 6/5 900 м
[Cu hum Ci fib]
+19.6 +11.8 61 +20 +21 1010.8 1007.0
11 15.08 З 9
{13}
45 км 8/8 1050 м
[Cu Sc]
+20.3 +12.3 60 +22 +22 комфорт 1011.6 1007.7
12 15.08 З 8
{13}
45 км 6/6 1200 м
[Cu Sc]
+21.1 +12.1 56 +23 +24 комфорт 1012.1 1008.2
13 15.08 З 10
{13}
45 км 5/5 1500 м
[Cu hum]
+21.6 +10.7 50 +23 +24 комфорт 1012.7 1008.9
14 15.08 СЗ 7
{13}
60 км 4/4 1440 м
[Sc diur, vesp]
+21.6 +10.4 49 +23 +25 комфорт 1013.2 1009.3
15 15.08 З 8 55 км 8/5 1380 м
[Sc Ci fib]
+22.0 +10.0 46 +24 +24 комфорт 1013.5 1009.7
16 15.08 З 7 60 км 8/3 1440 м
[Sc diur, vesp Ci fib]
+21.2 +9.0 46 +22 +23 комфорт 1013.9 1010.0
17 15.08 З 7 50 км 9/3 1500 м
[Sc diur, vesp Cs]
+20.3 +9.1 49 +21 +22 комфорт 1014.8 1010.9
18 15.08 СЗ 5 50 км 9/1 1380 м
[Sc diur, vesp Cs]
+19.5 +9.7 53 +20 +21 1015.6 1011.7 +22.6
19 15.08 СЗ 4 50 км 6/1 1380 м
[Sc diur, vesp Ci sp]
+19.1 +9.7 54 +20 +20 1016.1 1012.2
20 15.08 СЗ 2 50 км 3/0
[Ci sp]
+16.7 +9.6 63 +17 +17 1016.4 1012.4
21 15.08 СЗ 2 40 км н/о +15.4 +9.7 69 +15 +15 1017.2 1013.3
22 15.08 З 1 35 км н/о +13.7 +9.9 78 +14 +14 1017.2 1013.2
23 15.08 З 1 40 км н/о +12.6 +9.2 80 +13 +13 1017.3 1013.3
00 16.08 З 2 29 км н/о +12.7 +11.0 89 +12 +12 1017.1 1013.1
01 16.08 ЮЗ 2 24 км н/о +12.3 +11.1 92 +11 +11 1017.0 1013.0
02 16.08 Ю 1 21 км н/о +12.1 +11.2 94 +12 +12 1016.7 1012.7
03 16.08 ЮЗ 2 18 км н/о +11.5 +10.9 96 +10 +10 1016.4 1012.4
04 16.08 ЮЗ 1 23 км н/о +12.0 +11.3 95 +13 +13 1015.8 1011.8
05 16.08 ЮЗ 1 30 км 9/8 1200 м
[Sc Ac trans]
+12.9 +11.7 92 +13 +13 1015.5 1011.5
06 16.08 Ю 2 30 км 9/9 1440 м
[Sc Ci sp]
+14.1 +12.4 89 +14 +14 1014.8 1010.8 +11.5
07 16.08 ЮЗ 4 30 км 10/9 1050 м
[Sc Ci sp]
+15.9 +13.9 88 +15 +15 1014.2 1010.3
08 16.08 ЮЗ 5 25 км 9/9 360 м
[Cu Sc Ci sp]
+16.6 +14.0 85 +16 +16 1014.0 1010.1
09 16.08 ЮЗ 6 25 км 10/10 540 м
[Cu Sc]
+17.6 +13.7 78 +17 +17 1013.1 1009.2
10 16.08 ЮЗ 5 30 км 10/10 660 м
[Cu Sc]
+17.9 +13.1 73 +17 +17 1012.6 1008.6
11 16.08 ЮЗ 8 30 км 10/4 840 м
[Cu Sc As op]
+18.4 +11.6 65 +18 +18 1011.7 1007.8
12 16.08 ЮЗ 8 20 км слаб. дождь 10/3 750 м
[Sc Ac As]
+17.0 +12.4 74 +16 +16 1011.1 1007.2 0.0
13 16.08 ЮЗ 6
{13}
20 км слаб. дождь 10/4 700 м
[Sc As op]
+16.4 +13.9 85 +15 +16 1010.6 1006.7
14 16.08 ЮЗ 7 20 км слаб. дождь 10/9 700 м
[Sc As op]
+16.7 +13.8 83 +16 +16 1010.1 1006.2
15 16.08 ЮЗ 7 20 км слаб. дождь 10/10 480 м
[Sc]
+16.8 +14.1 84 +16 +16 1009.4 1005.5
16 16.08 ЮЗ 6 20 км слаб. дождь 10/10 400 м
[Sc]
+16.5 +15.0 91 +15 +15 1008.5 1004.6
17 16.08 Ю 8 5000 м дождь 10/10 400 м
[Sc]
+16.4 +14.9 91 +15 +15 1007.3 1003.4
18 16.08 Ю 8 15 км слаб. дождь 10/10 360 м
[Sc]
+16.4 +15.0 91 +15 +15 1006.6 1002.7 +18.8 3
19 16.08 ЮЗ 8
{13}
5000 м дождь 10/10 360 м
[Sc]
+16.5 +15.0 91 +15 +15 1005.5 1001.6
20 16.08 ЮЗ 8 6000 м н/о +16.4 +15.5 94 +15 +15 1005.0 1001.1
21 16.08 ЮЗ 6 2100 м н/о +16.4 +15.7 96 +15 +15 1004.6 1000.7
22 16.08 ЮЗ 6 3900 м н/о +16.5 +16.0 97 +15 +15 1004.0 1000.1
23 16.08 ЮЗ 5 9000 м н/о +16.8 +16.2 96 +16 +16 1003.5 999.6
00 17.08 ЮЗ 5 28 км н/о +16.9 +16.4 97 +16 +16 1003.1 999.2 4
01 17.08 ЮЗ 5 35 км н/о +17.2 +16.6 96 +17 +17 1003.1 999.2
02 17.08 ЮЗ 4 40 км н/о +17.4 +16.7 96 +17 +17 1003.1 999.2
03 17.08 ЮЗ 4 30 км н/о +17.3 +16.6 96 +17 +17 1002.9 999.1
04 17.08 З 5
{13}
30 км н/о +16.2 +15.4 95 +15 +15 1003.6 999.7
05 17.08 З 3 23 км н/о +15.3 +14.4 94 +15 +15 1003.8 999.9
06 17.08 ЮЗ 3 25 км 1/1 1350 м
[Sc Ac trans Ci sp]
+14.8 +13.9 94 +14 +14 1004.1 1000.2 +14.6 5
07 17.08 З 4 28 км 3/1 300 м
[Cu Sc Ci fib]
+15.6 +13.7 88 +15 +16 1004.6 1000.7
08 17.08 ЮЗ 6 30 км 5/1 450 м
[Cu hum Ci sp]
+16.9 +14.0 83 +16 +18 1004.7 1000.8
09 17.08 ЮЗ 6 35 км 4/1 600 м
[Cu hum Ci sp]
+18.3 +13.7 75 +18 +21 1004.6 1000.7
10 17.08 ЮЗ 7 40 км 6/4 750 м
[Cu med, cong Ci sp]
+18.7 +13.3 71 +19 +20 1005.0 1001.1
11 17.08 З 6 35 км осадки на расстоянии 6/4 750 м
[Cu Sc Ci sp]
+18.3 +13.1 72 +18 +21 1005.0 1001.1
12 17.08 З 7 40 км 4/1 840 м
[Cu Sc Ci sp]
+20.9 +13.3 62 +23 +27 комфорт 1004.8 1000.9
13 17.08 З 8 40 км осадки на расстоянии 9/8 1050 м
[Cu Sc Ci sp]
+20.4 +11.8 58 +22 +22 комфорт 1004.8 1001.0
14 17.08 З 8 45 км 4/3 1260 м
[Cu Sc Ci fib]
+21.7 +11.3 52 +24 +25 комфорт 1004.8 1001.0
15 17.08 З 6 45 км 4/4 1320 м
[Cu Sc]
+21.7 +10.8 50 +24 +25 комфорт 1004.8 1001.0
16 17.08 З 6 40 км 6/6 1320 м
[Cu Sc Ci fib]
+21.6 +11.2 52 +24 +24 комфорт 1004.5 1000.7
17 17.08 З 5 40 км 5/5 1200 м
[Cu Sc Ci fib]
+21.7 +10.9 50 +24 +24 комфорт 1004.5 1000.6
18 17.08 ЮЗ 6 40 км 8/8 1050 м
[Cu Sc Ci fib]
+20.1 +13.3 65 +22 +22 комфорт 1004.6 1000.7 +22.5
19 17.08 ЮЗ 6 30 км в посл. час ливневой дождь 9/6 960 м
[Cu Sc Ci sp]
+18.7 +12.9 69 +19 +19 1004.6 1000.7
20 17.08 ЮЗ 6 26 км н/о +17.6 +12.9 74 +17 +17 1004.9 1001.0
21 17.08 ЮЗ 5 26 км н/о +17.1 +12.6 75 +17 +17 1005.5 1001.6
22 17.08 ЮЗ 5 27 км н/о +16.4 +12.4 77 +16 +16 1005.3 1001.4
23 17.08 ЮЗ 3 22 км н/о +15.9 +12.8 82 +16 +16 1004.7 1000.8
00 18.08 ЮЗ 3 21 км н/о +15.6 +12.8 83 +15 +15 1005.0 1001.1 0.0
01 18.08 ЮЗ 3 23 км н/о +15.4 +12.5 83 +15 +15 1004.5 1000.6
02 18.08 ЮЗ 2 24 км н/о +15.1 +12.3 83 +15 +15 1004.0 1000.1
03 18.08 ЮЗ 3 24 км н/о +14.9 +12.4 85 +14 +14 1003.6 999.7
04 18.08 ЮЗ 3 21 км н/о +14.9 +12.6 86 +14 +14 1003.3 999.4
05 18.08 ЮЗ 3 23 км н/о +14.1 +12.2 88 +13 +13 1002.8 998.9
06 18.08 ЮЗ 2 28 км 9/1 1500 м
[Sc Ac As]
+14.7 +12.9 89 +14 +14 1002.8 998.9 +14.1 0.0
07 18.08 З 3 30 км 9/1 1500 м
[Sc Ac As]
+15.6 +12.8 83 +15 +16 1002.9 999.0
08 18.08 ЮЗ 3 35 км 9/8 480 м
[Cu Sc Ac As]
+16.4 +12.7 79 +16 +17 1003.2 999.3
09 18.08 З 6 12 км дождь 10/10 600 м
[Cu Sc]
+15.0 +12.8 87 +13 +13 1004.3 1000.4
10 18.08 З 3 15 км слаб. дождь 9/3 450 м
[Cu Sc Ac As]
+14.7 +13.6 93 +14 +16 1004.4 1000.4
11 18.08 З 5 40 км в посл. час дождь 1/1 450 м
[Cb calv Ac trans]
+17.6 +13.3 76 +17 +23 1004.6 1000.7
12 18.08 З 6 40 км осадки на расстоянии 5/5 660 м
[Cb cap]
+19.0 +12.4 66 +20 +22 1004.6 1000.8 2
13 18.08 З 7 50 км 3/3 1050 м
[Cu med, cong]
+20.6 +11.4 56 +22 +25 комфорт 1004.8 1000.9
14 18.08 З 8
{13}
50 км 3/3 1350 м
[Sc diur, vesp]
+21.1 +10.5 51 +23 +24 комфорт 1005.2 1001.4
15 18.08 З 7
{14}
50 км 4/3 1380 м
[Cu hum Ac trans]
+21.4 +10.3 49 +23 +24 комфорт 1005.7 1001.9
16 18.08 З 8
{14}
45 км 6/1 1380 м
[Cu hum Ac trans]
+21.0 +8.9 46 +22 +23 комфорт 1006.1 1002.3
17 18.08 ЮЗ 8 40 км 8/5 1350 м
[Sc diur, vesp Ac trans]
+19.4 +10.5 56 +20 +20 1006.6 1002.7
18 18.08 ЮЗ 6 40 км осадки на расстоянии 9/5 1200 м
[Sc diur, vesp Ac trans]
+18.6 +10.9 61 +19 +19 1006.7 1002.8 +21.7 2
19 18.08 ЮЗ 4 30 км в посл. час ливневой дождь 9/9 1350 м
[Cu Sc]
+15.0 +13.8 93 +14 +14 1007.5 1003.5
20 18.08 ЮЗ 4 30 км н/о +14.4 +12.8 90 +13 +13 1008.2 1004.2
21 18.08 ЮЗ 4 30 км н/о +13.9 +12.3 90 +12 +12 1008.7 1004.8
22 18.08 ЮЗ 4 24 км н/о +13.7 +12.5 92 +12 +12 1009.3 1005.4
23 18.08 ЮЗ 4 22 км н/о +13.4 +11.9 91 +12 +12 1009.8 1005.8
00 19.08 ЮЗ 4 24 км н/о +13.0 +11.2 89 +11 +11 1010.1 1006.2 3

 

Местоположение метеостанции Норхолт (Великобритания): широта 51.55 долгота -0.42 высота над уровнем моря 39 м.

В архиве по умолчанию представлена погода в Норхолте за последнюю неделю. Архивные данные за месяц целиком и за предыдущие месяцы, начиная с января 2011 года, Вы можете получить, выбрав интересующий диапазон дат из раскрывающегося списка и нажав кнопку "Ввод!".


*Определитесь, кто Вы:
робот инопланетянин человек

Внимание! Время в таблицах - всемирное. Для получения местного времени необходимо прибавить поправку, которая равна 0 ч.

Смотрите также архив погоды в соседних городах и на ближайших метеорологических станциях:

Погода в Лондоне (Великобритания) (8 км)
Погода в Лондоне (Великобритания) (21 км)
Погода в Хай-Уикоме (Великобритания) (30 км)
Погода в Чарлвуде (Великобритания) (36 км)
Погода на Аэродроме Кенли (Великобритания) (36 км)
Погода в Фарнборо (Великобритания) (39 км)
Погода в Бенсоне (Великобритания) (46 км)
Погода в Грейвзенде (Великобритания) (51 км)
Погода в Одихеме (Великобритания) (51 км)
Погода в Ротамстеде (Великобритания) (61 км)

Пояснения к столбцам:

Ветер - указаны скорость ветра в м/с - средняя за 10 мин, порывы в срок и между сроками (в фигурных скобках) и направление, откуда дует ветер: С - северный, СВ - северо-восточный, В - восточный, ЮВ - юго-восточный, Ю - южный, ЮЗ - юго-западный, З - западный, СЗ - северо-западный.
Видимость - горизонтальная дальность видимости в метрах или километрах. При видимости от 1 до 10 км при отсутствии осадков обычно наблюдается дымка, при ухудшении видимости до 1 км и менее - туман. В сухую погоду видимость может ухудшаться дымом, пылью или мглою.
Явления - указаны атмосферные явления, наблюдавшиеся в срок или в последний час перед сроком; фигурными скобками обозначены явления, наблюдавшиеся между сроками (за 1-3 часа до срока); квадратными скобками обозначены град или гололедные отложения с указанием их диаметра в мм.
Облачность - указаны через наклонную черту общая и нижняя облачность в баллах и высота нижней границы облаков в метрах; квадратными скобками обозначены формы облаков: Ci - перистые, Cs - перисто-слоистые, Cc - перисто-кучевые, Ac - высококучевые, As - высокослоистые, Sc - слоисто-кучевые, Ns - слоисто-дождевые, Cu - кучевые, Cb - кучево-дождевые. Подробнее классификацию облаков см. в Атласе облаков (PDF).
T - Температура воздуха - температура, измеренная на высоте 2 м над землей.
Td - Температура точки росы - температура, при понижении до которой содержащийся в воздухе водяной пар достигнет насыщения.
f - Относительная влажность воздуха - влажноcть воздуха, измеренная на высоте 2 м над землей.
Te - Эффективная температура - температура, которую ощущает одетый по сезону человек в тени. Характеристика душности погоды. При расчете учитывается влияние влажности воздуха и скорости ветра на теплоощущения человека.
Tes - Эффективная температура на солнце - температура, которую ощущает человек, с поправкой на солнечный нагрев. Характеристика знойности погоды. Зависит от высоты солнца над горизонтом, облачности и скорости ветра. Ночью, в пасмурную погоду, а также при ветре 12 м/с и более поправка равна нулю.
P - Атмосферное давление - приведенное к уровню моря атмосферное давление.
Po - Атмосферное давление - измеренное на уровне метеостанции атмосферное давление.
Tmin - Минимальная температура - минимум температуры воздуха на высоте 2 м над землей.
Tmax - Максимальная температура - максимум температуры воздуха на высоте 2 м над землей.
R - Количество осадков - Количество выпавших осадков за период времени, мм. При наведении курсора мыши на число - период времени, за который выпало указанное количество осадков.
R24 - Количество осадков - Количество выпавших осадков за 24 часа, мм.
S - Снежный покров - Высота снежного покрова, см. При наведении курсора мыши на число - состояние снежного покрова и степень покрытия местности в баллах.